Location: La Silve
(44.2414°N, 5.8889°E)
Time: 20:16:49
(UTC+00:00)

Tiangong - Pass Details

Date: 27 June 2021
Orbit: 373 x 386 km, 41.5° (Epoch: 29 July)

Event Time Altitude Azimuth Distance (km) Brightness Sun altitude
Exits shadow 02:07:05 32° 238° (WSW) 674 1.8 -14.5°
Maximum altitude 02:08:11 51° 181° (S) 484 1.2 -14.4°
Drops below altitude 10° 02:11:08 11° 104° (ESE) 1,347 4.1 -14.1°
Sets 02:13:21 0° 99° (E) 2,245 5.3 -13.8°
